Regional Weather Roundup
Issued by NWS Midland/Odessa, TX

Home | Current Version | Previous Version | Text Only | Print | Product List | Glossary On
Versions: 1 2 3 4 5 6 7 8 9 10 11 12 13 14 15 16 17 18 19 20 21 22 23 24 25 26 27 28 29 30 31 32 33 34 35 36 37 38 39 40 41 42 43 44 45 46 47 48 49 50
000
ASUS44 KMAF 181110
RWRMAF
MIDLAND AREA WEATHER ROUNDUP
NATIONAL WEATHER SERVICE MIDLAND TX
500 AM CST MON DEC 18 2017

...IN SOUTHWEST TEXAS AND SOUTHEAST NEW MEXICO...

CITY           SKY/WX    TMP DP  RH WIND       PRES   REMARKS
ALPINE         PTCLDY    39  29  67 SW3       30.12S
ANDREWS        FAIR      34  31  91 N5        30.08S WCI  30
ARTESIA        PTCLDY    41  32  70 NW9       30.07S WCI  35
BIG SPRING     CLEAR     37  32  82 CALM      30.09F
CARLSBAD       PTCLDY    41  35  79 NW8       30.03F WCI  36
DRYDEN           N/A     42  41  96 E3        30.06S
FORT STOCKTON  CLEAR     41  35  79 SW8       30.04F WCI  36
GUAD PASS      MOCLDY    47  33  58 NE21      30.06F WCI  39
HOBBS          PTCLDY    36  28  75 NE7       30.06S WCI  30
LAMESA         CLOUDY    36  30  80 E6        30.09S WCI  31
MARFA          NOT AVBL
MIDLAND AIRPK  CLEAR     38  35  88 CALM      30.07F
MIDLAND INTL   PTCLDY    35  32  88 NE6       30.05F WCI  30
ODESSA         PTCLDY    36  34  92 NE10      30.05F WCI  28
PECOS          CLOUDY    35  34  95 NW3       30.05S
PRESIDIO       FAIR      47  35  63 N7        30.05S
SEMINOLE       CLEAR     35  29  78 N3        30.08F
SNYDER         CLOUDY    39  32  77 NE6       30.09S WCI  34
WINK           CLEAR     37  34  89 NE6       30.05R WCI  32
$$
...OTHER STATIONS IN TEXAS...

CITY           SKY/WX    TMP DP  RH WIND       PRES   REMARKS
ABILENE        PTCLDY    35  33  92 S8        30.11R WCI  29
AMARILLO       CLOUDY    31  24  75 SW10      30.06F WCI  22
AUSTIN         FOG       50  49  96 CALM      30.13R VSB 3/4
BROWNSVILLE    CLOUDY    61  58  90 N3        30.07S
CORPUS CHRISTI CLOUDY    54  54 100 N12       30.09F FOG
DALLAS FTW     CLOUDY    50  48  93 CALM      30.14R FOG
DEL RIO        CLOUDY    48  48 100 E7        30.09S FOG
EL PASO        LGT RAIN  46  44  93 N9        30.07R
HOUSTON INT    MOCLDY    56  54  93 NW6       30.13R
LUBBOCK        CLEAR     32  23  69 NW6       30.08F WCI  26
SAN ANGELO     CLOUDY    33  31  92 SW3       30.07F FOG
SAN ANTONIO    DRZL/FOG  50  49  96 CALM      30.12S VSB 1/4
WACO           CLOUDY    48  47  96 SE6       30.14F FOG
WICHITA FALLS  PTCLDY    28  27  96 W3        30.08R
$$
...OTHER LOCATIONS IN NEW MEXICO...

CITY           SKY/WX    TMP DP  RH WIND       PRES   REMARKS
ALAMOGORDO       N/A     41  37  87 NW8       30.08S WCI  36
ALBUQUERQUE    CLOUDY    33  26  75 N12       30.09F WCI  24
CANNON AFB     CLEAR     34  24  68 CALM      30.09S
CLOVIS         CLOUDY    29  21  72 CALM      30.09S
HOLLOMAN AFB   CLOUDY    39  37  94 N5        30.10S WCI  35
ROSWELL        CLOUDY    40  30  67 NW7       30.06F WCI  35
RUIDOSO        CLOUDY    36  32  87 SE5       30.13F WCI  32
SANTA FE       CLOUDY    22  20  92 N5        30.12F WCI  16
TRUTH OR CONSE MOCLDY    36  34  92 CALM      30.09S
TUCUMCARI      CLOUDY    36  27  69 SW5       30.03S WCI  32
$$




USA.gov is the U.S. government's official web portal to all federal, state and local government web resources and services.